Theta_e
281 281 280 280 280 280 281 281 281 281 281 281 280 280 278 277 275 274 274 276 277 280 283 281 285 289 290 291 294 294 295 295 295 296 296 297 297 298 300 302 303 304 305 306 306 306 306 306 307 308 310 311 312 315 320 323 323 324 326 328 329 329 329 329 329 328 327 327 327 328 326 326 327 328
280 280 280 280 280 280 280 280 280 280 280 280 280 279 279 279 276 276 274 274 278 278 281 282 282 285 287 290 291 293 293 294 294 295 296 296 295 298 300 302 305 305 305 306 307 308 308 307 306 307 308 309 312 314 317 321 323 324 326 330 331 330 329 328 328 327 326 327 327 326 326 326 327 327
279 279 279 279 279 279 279 279 279 280 280 279 279 279 279 279 279 277 276 273 276 280 278 280 283 284 286 288 289 291 291 291 291 292 294 296 296 295 296 297 301 303 303 304 304 304 306 308 308 307 307 310 312 314 315 318 321 322 325 328 330 329 329 328 326 326 325 326 327 326 326 326 327 328
279 278 278 278 278 279 279 278 279 279 279 279 278 278 278 278 278 277 275 273 273 278 279 280 282 284 284 286 286 287 289 289 289 290 291 293 293 293 294 297 299 300 302 303 303 304 305 307 309 310 309 310 311 313 315 317 320 321 321 324 328 328 326 325 324 324 324 324 325 325 324 325 326 327
277 277 277 277 278 278 277 277 277 278 278 278 278 278 278 277 277 277 275 274 274 277 281 281 281 283 283 283 284 284 285 287 289 291 292 293 293 293 294 294 295 298 300 301 302 304 305 306 308 309 310 310 311 312 314 315 317 319 321 322 325 326 325 325 324 323 322 323 323 323 323 324 325 325
276 276 275 275 275 276 275 275 276 276 277 277 276 276 276 275 276 276 275 275 275 274 277 278 280 280 282 280 282 281 281 282 284 285 287 289 291 293 294 295 296 298 300 302 303 304 305 306 308 309 309 309 311 312 313 314 315 318 320 320 320 322 323 324 323 322 320 323 323 323 323 323 324 325
273 273 273 273 273 274 273 273 274 275 274 274 273 273 274 274 274 275 275 274 273 274 275 277 277 278 278 278 278 279 280 281 283 283 284 285 287 291 293 293 295 297 300 302 304 304 305 305 305 306 308 309 310 311 312 313 314 316 318 319 319 319 319 321 321 320 320 322 324 322 322 323 324 324
271 271 271 271 271 271 271 271 271 272 272 271 271 272 273 273 273 274 274 274 273 273 273 275 275 276 276 277 278 279 280 280 281 282 283 285 286 289 293 294 294 297 300 301 302 303 304 304 304 305 305 306 308 310 311 312 313 315 315 316 317 318 317 318 318 318 317 320 322 323 322 323 323 323
270 270 270 270 270 270 269 269 269 270 270 270 270 271 271 272 272 272 273 273 274 274 273 274 275 276 276 276 277 277 276 279 281 283 284 286 288 290 291 293 295 296 298 299 300 300 302 303 304 305 305 306 307 309 311 312 313 313 314 314 314 316 316 316 316 315 315 316 317 319 321 323 323 322
270 269 269 269 270 269 269 269 269 269 269 270 269 270 270 271 271 271 272 273 273 273 273 273 273 274 274 274 275 276 277 277 278 280 283 286 288 290 291 292 294 296 297 298 300 299 300 301 302 304 305 306 307 308 310 311 312 311 311 312 313 314 314 315 315 314 314 315 315 316 318 321 322 321
270 270 270 269 270 269 269 269 269 269 270 270 269 270 270 270 271 270 271 271 272 273 273 273 273 273 274 274 273 277 279 280 280 281 282 283 286 290 291 292 294 296 296 298 299 300 300 301 301 302 302 304 305 306 307 310 311 309 310 311 312 312 313 313 313 313 313 313 314 314 314 316 320 321
270 270 270 270 270 270 270 270 270 270 269 270 270 271 271 271 270 270 271 271 271 271 271 271 272 273 273 274 276 277 278 278 279 282 283 283 285 288 292 293 293 295 296 297 298 299 300 300 301 301 302 303 303 304 304 306 309 308 309 310 312 312 312 312 312 312 311 312 312 313 313 314 315 319
271 271 271 271 271 271 273 274 274 273 273 271 270 270 271 271 270 270 270 271 271 271 271 271 272 272 272 273 274 274 275 277 279 283 285 286 288 290 291 292 295 295 295 295 296 297 299 300 302 303 303 305 304 304 302 305 305 307 309 310 311 311 311 312 311 311 310 311 311 312 313 313 313 315
271 271 272 272 275 275 275 276 276 277 277 277 274 273 273 272 271 271 270 270 271 270 270 270 271 270 271 272 273 274 276 277 279 281 281 282 286 289 289 290 291 294 295 294 292 293 295 297 299 304 305 306 304 306 307 309 310 307 308 310 311 311 311 311 311 310 310 310 311 311 311 312 312 313
271 272 272 272 273 274 275 274 276 277 277 277 278 278 278 277 274 272 271 271 271 271 270 271 271 271 271 272 274 274 276 278 278 279 281 283 284 285 285 285 288 291 292 289 288 288 291 292 293 300 305 307 308 309 309 307 307 307 308 309 310 310 310 311 310 310 310 310 310 310 311 311 312 312
272 272 272 272 272 272 272 272 273 274 276 277 278 278 278 279 279 279 276 273 272 272 272 271 272 272 272 273 274 275 276 277 279 280 281 281 282 284 285 285 285 289 290 288 286 287 290 291 292 294 300 306 309 310 309 307 308 308 308 309 309 310 310 310 310 309 309 309 310 310 310 311 311 311
271 271 271 271 272 272 275 274 273 273 273 275 277 277 278 278 279 280 280 281 277 276 274 274 274 275 275 274 275 277 277 278 277 278 279 280 281 283 283 285 286 288 289 288 286 285 288 291 291 292 297 303 308 311 308 308 308 308 308 309 309 309 309 309 309 309 309 309 309 310 310 310 310 310
271 271 271 271 271 272 273 273 272 272 272 272 272 273 273 274 276 278 279 279 280 279 276 275 274 276 277 276 277 278 279 277 276 277 277 279 279 280 282 286 287 289 290 287 286 285 287 290 291 292 295 300 305 310 310 308 308 308 308 308 309 309 309 309 309 308 308 309 309 309 310 309 309 310
272 272 272 272 272 272 273 273 273 272 272 272 272 272 272 273 273 275 275 276 276 276 277 276 276 276 277 277 278 278 278 278 277 278 278 279 279 281 283 285 287 288 289 288 286 283 287 290 290 291 294 297 302 311 310 307 307 307 308 308 308 309 308 308 308 308 308 308 309 309 309 309 309 309
273 273 273 272 273 273 273 275 277 276 274 272 272 272 272 273 274 275 278 279 280 278 277 277 277 277 277 280 278 278 278 278 278 279 280 281 281 281 281 281 285 286 288 288 287 285 286 289 289 289 293 297 299 308 311 307 307 307 308 308 308 308 308 308 308 308 308 308 308 309 309 308 308 308
273 273 273 273 273 273 273 276 278 278 277 273 272 272 272 272 273 274 276 279 281 281 282 282 282 283 283 283 283 283 284 281 281 279 278 278 280 280 280 281 283 285 287 288 289 287 285 288 288 289 292 294 297 305 310 309 306 307 307 307 308 308 308 308 307 307 308 308 308 308 308 308 308 306
273 274 276 276 274 274 273 277 278 278 275 272 272 271 271 271 271 272 274 275 276 279 281 282 282 282 282 283 284 283 283 284 284 280 276 278 280 280 281 280 282 285 287 288 288 286 285 288 289 289 291 292 296 303 309 309 308 305 306 307 307 307 308 308 307 307 307 307 308 308 308 307 306 310
273 273 275 276 276 275 275 278 278 278 276 273 273 273 272 271 271 273 275 275 274 275 277 278 279 279 281 280 280 280 283 283 283 281 280 281 280 279 281 282 283 282 284 288 289 286 286 286 287 287 287 288 295 303 306 306 308 308 309 310 310 306 306 307 307 307 307 307 307 308 307 307 307 312
273 274 274 274 276 277 277 278 278 278 278 274 273 273 272 271 271 274 274 275 275 275 275 275 277 277 279 279 280 280 280 280 281 281 281 281 282 281 281 282 283 282 284 287 287 286 286 286 285 287 287 285 286 299 304 305 308 308 310 310 310 305 305 305 306 306 307 307 307 307 307 306 308 313
272 272 272 272 274 276 277 277 277 277 277 277 274 273 272 273 274 276 274 275 277 275 276 277 277 278 278 279 279 280 280 281 281 282 283 284 284 284 283 283 283 284 286 288 290 287 285 286 285 286 286 286 287 289 301 304 307 307 307 310 310 310 310 310 309 310 306 306 307 307 306 307 308 312
272 271 271 270 273 275 276 277 277 278 277 278 274 274 277 278 279 276 275 275 275 276 276 276 276 276 277 278 279 279 280 281 282 283 284 285 286 287 286 285 284 284 285 288 291 288 285 285 286 285 286 285 286 288 297 302 305 307 308 310 311 310 310 309 310 310 310 310 310 309 309 307 308 309
270 270 270 271 274 276 277 276 276 276 277 275 273 277 278 279 279 278 276 276 275 275 275 275 275 276 277 278 279 280 280 282 283 284 285 286 287 287 288 289 288 287 288 288 288 287 286 285 286 285 285 286 285 286 292 300 302 305 306 308 309 310 310 311 309 309 310 310 310 306 306 307 308 308
270 269 270 272 276 275 275 275 275 275 274 272 275 276 277 277 278 277 276 276 276 275 275 275 276 276 278 279 279 280 281 282 283 284 286 286 287 288 288 288 288 288 288 288 288 288 287 286 286 286 286 285 284 285 287 301 302 303 304 307 307 309 310 309 309 307 307 309 310 309 309 309 310 311
270 273 275 275 274 274 274 274 274 272 272 274 274 275 275 275 273 274 275 275 275 274 274 275 276 276 277 279 280 282 283 284 284 285 285 287 287 287 287 287 287 287 287 287 288 288 287 286 286 286 286 286 285 286 287 295 301 303 304 303 303 306 308 310 310 309 308 310 309 308 309 310 310 310
274 274 273 273 272 272 271 269 268 268 269 273 273 273 273 271 271 271 271 272 272 273 275 276 276 277 279 280 281 283 283 283 283 284 285 285 285 286 286 286 286 287 287 287 288 288 288 288 288 287 286 286 286 286 287 291 300 303 301 303 304 303 306 309 309 309 307 307 308 308 310 311 311 309
269 269 269 269 271 271 271 271 271 270 270 268 268 269 269 269 270 270 271 271 271 272 273 274 276 279 280 282 282 282 283 283 283 284 284 284 284 285 285 285 285 285 287 287 288 288 288 289 289 289 286 286 287 287 288 290 298 302 302 304 303 301 304 308 308 308 309 309 308 308 309 310 309 305
267 266 268 268 266 266 266 266 266 266 267 267 267 267 268 268 269 271 272 273 272 272 273 273 274 276 279 280 281 282 282 283 284 285 284 284 284 285 285 284 284 285 286 287 287 287 287 289 289 289 289 288 286 287 289 291 298 302 302 302 302 305 306 306 306 307 309 308 307 306 307 308 308 309
265 265 264 264 264 264 264 264 264 265 265 265 266 267 267 268 268 268 269 268 269 270 271 271 271 272 274 277 281 282 282 283 283 285 284 284 284 285 285 284 284 284 284 285 286 288 288 289 289 290 291 291 290 289 288 288 298 303 302 302 303 303 305 307 306 306 307 306 305 305 304 306 307 308
263 263 262 262 262 262 263 262 263 263 264 264 264 265 267 267 267 267 268 268 269 270 270 270 270 270 272 274 277 281 282 283 283 284 284 284 284 284 284 283 284 285 285 285 286 287 289 289 290 290 290 290 291 291 291 290 296 302 303 303 303 303 304 305 306 305 305 305 304 303 303 304 305 307
262 261 261 261 262 262 262 262 262 263 263 263 264 264 265 266 266 267 267 268 268 269 269 269 270 270 271 272 274 276 280 282 283 283 284 284 284 284 284 284 284 285 285 285 286 287 289 290 290 290 290 290 290 291 292 292 296 301 303 303 303 303 303 304 303 304 304 305 305 303 302 303 303 306
261 261 261 260 261 261 261 261 262 263 263 263 264 264 264 265 266 266 266 268 268 268 268 268 269 269 270 271 272 273 276 278 281 283 283 284 284 284 285 285 285 285 286 286 286 288 289 290 291 290 289 289 287 287 290 294 296 300 301 301 302 303 302 302 301 303 303 303 303 303 301 301 302 304
260 260 260 260 261 261 261 261 262 262 263 263 264 264 264 264 265 266 267 268 268 268 268 269 268 269 269 270 270 272 274 276 278 281 283 284 284 284 284 285 285 285 285 286 287 288 289 290 291 291 290 288 287 287 290 295 295 297 302 301 300 301 301 301 301 301 302 302 302 303 302 302 302 304
260 260 260 260 260 261 261 261 262 262 262 263 263 264 264 265 266 266 268 267 267 268 268 267 267 268 268 269 269 269 271 273 275 278 281 284 284 284 284 284 285 285 285 286 287 288 290 291 291 292 291 289 289 289 291 294 298 298 297 301 300 300 301 301 301 301 301 302 302 303 303 302 302 303
260 259 259 260 260 260 260 261 261 262 262 263 263 263 264 264 265 266 266 267 268 267 267 267 266 267 267 267 268 268 268 269 271 274 277 281 284 284 284 284 285 286 286 286 288 289 290 291 292 293 292 291 291 292 295 295 297 300 299 296 299 300 300 301 301 302 302 301 302 301 297 297 299 297
259 260 260 260 260 260 261 261 261 262 262 263 263 263 264 264 265 265 266 267 267 267 267 266 266 266 266 266 266 267 267 268 269 272 275 278 281 284 285 285 285 286 286 286 287 289 291 292 293 294 294 294 295 297 296 296 298 301 300 298 297 300 301 302 301 301 301 302 301 298 297 299 297 297
259 258 259 260 260 260 260 261 261 262 262 263 263 265 264 264 265 266 267 267 267 266 266 266 266 265 265 265 265 266 266 267 268 270 273 276 279 283 285 285 285 286 286 286 288 290 291 293 294 294 294 294 293 295 296 294 294 296 297 298 296 297 298 300 303 302 301 300 300 300 298 297 297 298
258 258 258 259 259 260 260 261 261 262 262 263 263 263 264 264 265 269 268 267 267 266 266 265 265 265 265 265 265 265 265 266 267 268 271 273 277 282 285 286 285 286 287 287 289 291 294 295 293 292 292 294 296 296 294 294 294 296 297 298 298 296 297 297 299 300 305 302 301 299 298 298 298 298
257 257 258 259 259 260 260 261 261 261 262 262 263 263 263 264 265 266 266 267 266 266 265 265 265 265 265 265 265 265 265 265 266 267 269 272 275 279 284 286 287 287 288 289 292 293 292 291 292 293 295 297 296 296 295 295 295 296 295 296 296 296 297 295 297 297 298 298 299 301 302 300 298 296
256 257 257 258 259 259 260 261 261 261 262 262 263 263 263 264 265 266 266 266 266 265 265 265 265 264 264 264 265 265 265 266 267 268 269 272 275 278 285 288 288 288 289 291 292 291 291 293 294 295 295 295 296 296 295 295 295 295 295 295 295 296 296 295 296 295 296 297 297 298 297 295 290 294
256 256 257 258 258 259 260 260 261 261 262 262 263 263 264 265 266 266 267 267 266 265 265 265 264 264 264 264 264 264 265 268 268 269 270 272 275 279 285 289 289 289 290 292 291 290 292 293 294 295 296 296 296 296 295 295 295 295 294 293 294 295 295 296 297 297 297 296 293 294 296 293 292 293
Wind_Speed
12 12 15 15 14 14 14 15 15 15 15 15 15 14 17 14 17 15 17 19 18 17 15 15 11 12 12 13 13 14 13 15 15 12 13 15 15 19 21 23 27 32 30 27 27 29 31 32 32 29 28 29 30 31 32 28 27 29 32 34 36 36 36 36 37 35 31 32 38 37 36 37 37 37
12 14 15 14 15 14 15 15 16 15 15 16 15 16 17 15 18 17 18 19 13 20 19 17 15 13 15 15 14 14 15 18 20 17 17 17 18 23 22 20 20 20 20 21 22 24 28 30 32 31 29 29 30 31 31 31 26 30 31 33 38 39 40 42 42 42 41 35 32 34 37 35 35 35
13 14 16 16 16 15 17 17 16 16 16 16 15 15 16 17 17 20 19 21 14 14 22 20 17 18 18 16 15 15 14 18 23 20 19 18 20 23 22 25 26 26 25 25 24 24 26 30 31 31 30 30 31 30 31 32 29 30 35 36 39 42 43 43 41 41 40 39 38 33 33 35 35 35
13 15 17 17 15 16 16 16 16 17 14 17 15 19 15 16 20 18 18 22 22 14 21 23 20 21 20 17 20 20 17 16 24 20 20 22 25 20 17 24 28 30 30 28 27 25 25 28 31 28 28 30 30 31 31 32 33 31 31 33 36 38 38 39 40 41 44 43 41 39 37 35 35 34
14 15 17 18 17 17 17 16 16 14 17 18 15 16 18 17 14 19 17 19 22 18 20 20 18 17 19 15 16 19 17 17 18 20 18 20 19 19 17 18 26 27 27 29 28 25 23 24 27 28 27 28 29 30 31 33 34 33 31 36 37 36 36 35 35 35 38 42 41 37 36 36 35 36
13 14 17 17 17 15 17 16 17 16 14 15 17 14 17 19 14 19 17 18 20 19 19 17 17 13 17 17 18 16 18 19 23 22 20 19 20 19 19 18 17 25 26 25 26 25 23 23 23 25 27 28 27 29 31 32 34 35 33 34 35 36 38 38 36 35 33 33 36 37 36 35 33 34
13 15 15 16 15 13 15 16 16 15 16 14 17 18 15 20 19 18 19 19 19 19 23 17 17 15 12 18 18 19 18 21 22 23 23 21 20 20 19 17 16 23 27 26 23 22 22 22 24 26 25 26 27 28 30 32 33 35 35 35 36 34 36 39 39 40 40 39 37 39 37 37 34 32
13 15 15 16 15 15 16 16 16 16 17 17 17 19 18 19 19 19 18 20 20 20 22 19 19 13 18 16 19 17 18 19 21 20 21 23 24 23 18 17 17 19 28 29 23 19 20 22 24 27 27 27 26 28 30 32 34 35 36 36 39 40 40 40 42 41 41 40 38 38 38 37 35 34
14 15 15 16 16 16 17 17 17 16 20 17 17 18 17 17 19 16 18 19 18 17 20 18 16 16 16 20 16 17 18 21 20 20 20 20 21 21 20 17 16 23 30 33 27 22 22 24 26 27 28 27 26 28 31 32 35 35 35 36 38 38 41 48 46 43 41 39 37 36 36 38 36 36
13 16 17 17 16 17 18 18 18 17 20 19 18 19 18 18 17 18 19 18 19 20 19 20 19 18 18 18 17 17 17 18 20 19 20 21 20 19 18 16 14 13 13 13 14 16 19 24 28 28 26 26 26 25 30 33 34 37 36 35 35 36 34 36 45 45 44 42 40 38 37 36 36 37
16 16 17 18 17 19 19 19 18 19 19 19 19 19 19 18 18 18 17 18 19 18 19 18 19 18 18 17 20 18 15 18 18 18 17 18 19 17 17 17 13 12 13 18 19 15 15 16 17 23 28 29 27 25 26 31 34 33 36 35 35 35 36 34 33 38 39 38 38 39 39 36 34 35
16 17 17 18 18 19 19 19 19 19 19 19 19 17 18 17 17 17 17 17 17 17 18 18 17 17 17 17 17 17 15 16 16 16 16 18 19 17 15 13 10 9 10 10 9 10 14 18 23 25 25 27 27 26 25 29 34 35 35 36 37 37 38 39 36 36 37 35 34 34 35 35 34 34
17 15 16 16 18 18 24 29 27 26 23 16 17 17 17 18 16 17 15 15 15 16 16 17 15 16 16 16 17 18 16 17 17 15 12 15 16 14 11 9 10 10 8 7 7 8 9 11 12 13 14 15 20 21 24 24 34 38 36 38 39 40 40 39 40 38 40 40 34 33 33 33 33 33
15 17 17 18 26 29 30 31 32 32 33 34 27 23 17 16 17 15 16 15 15 15 15 17 14 15 18 18 18 19 19 19 19 18 17 18 16 11 9 8 7 6 5 4 6 7 8 11 15 13 13 13 16 13 14 16 21 33 36 37 38 41 42 42 41 40 36 39 41 37 35 34 34 33
17 17 17 17 21 23 24 23 30 30 32 33 33 35 36 30 22 17 15 15 15 14 15 14 18 15 21 20 19 20 19 17 18 16 15 14 16 14 8 8 4 1 4 4 6 10 8 7 12 13 13 13 12 12 15 21 28 32 35 36 37 38 40 41 41 41 41 38 40 41 39 37 36 35
16 17 18 17 14 17 19 19 20 24 31 32 33 34 33 33 35 34 26 18 14 14 15 15 16 16 16 18 18 18 17 17 17 17 14 15 15 15 10 7 7 2 6 7 7 11 9 7 11 13 13 12 12 15 18 26 29 32 37 38 38 39 40 40 40 40 40 40 39 41 41 40 38 37
16 15 16 15 14 14 23 20 20 21 21 26 32 33 34 33 34 33 35 34 26 19 19 19 16 15 17 18 18 18 19 18 20 19 17 16 16 15 16 13 9 8 2 7 9 11 10 6 10 13 13 11 12 16 21 27 29 31 31 36 40 41 40 40 40 40 41 40 39 38 40 41 40 39
17 18 17 17 19 19 20 20 20 22 22 21 20 20 20 19 23 30 33 35 35 30 22 19 20 17 16 19 19 20 19 21 18 17 19 17 17 18 17 16 13 12 8 10 10 10 10 4 8 12 13 11 13 16 20 28 31 31 34 34 38 40 41 40 40 40 40 40 39 38 38 38 39 40
16 15 17 18 18 18 16 13 21 21 20 19 17 18 19 20 21 22 21 21 20 18 19 19 20 21 22 20 21 21 20 21 21 19 20 20 20 20 20 18 17 14 9 10 6 8 10 3 8 12 12 13 14 16 21 28 31 33 35 34 35 37 39 40 40 40 40 40 40 39 38 39 38 38
17 17 19 18 18 17 20 26 32 28 22 19 19 20 19 18 18 18 20 27 27 22 21 18 19 20 21 26 20 21 20 20 19 17 19 19 18 17 16 17 13 11 5 8 7 7 10 4 7 13 12 12 15 16 14 25 33 34 36 37 38 38 38 38 38 39 40 40 39 39 38 38 38 38
18 19 19 20 21 22 22 26 32 32 30 20 19 19 19 18 17 17 16 25 32 34 37 39 39 40 38 36 36 34 37 28 22 16 19 21 15 15 17 15 13 11 6 5 7 7 12 6 5 12 13 12 14 15 14 16 30 34 36 36 38 39 38 38 39 39 39 39 39 39 39 38 37 40
18 18 28 25 20 22 23 30 33 33 27 18 17 19 21 22 21 20 19 17 19 30 34 36 38 39 37 37 38 37 37 37 29 20 21 19 14 17 16 17 14 11 9 7 5 8 12 8 5 9 11 12 11 14 14 17 24 35 34 38 38 39 40 40 40 39 39 39 38 39 39 37 36 29
13 14 15 21 24 26 27 34 31 32 26 19 17 18 19 20 20 17 14 17 19 17 16 17 18 22 26 24 21 22 34 36 33 25 22 17 17 20 18 16 14 14 13 10 9 10 3 3 3 4 8 9 13 11 12 17 18 22 24 28 32 38 40 41 40 40 40 39 39 38 38 37 34 21
14 16 14 18 27 30 31 31 33 31 32 23 19 17 17 18 21 17 16 19 18 19 20 21 20 21 19 18 17 17 18 20 22 23 21 19 18 18 19 18 16 15 10 3 2 3 3 4 7 1 4 6 11 8 7 14 20 20 22 25 24 35 40 42 36 43 41 40 40 39 38 38 34 21
16 15 16 18 25 30 31 32 33 34 35 33 23 20 18 19 21 23 17 20 27 20 19 18 17 17 17 17 16 16 17 16 16 17 19 20 20 21 19 18 18 17 13 9 8 7 8 4 8 3 7 4 9 13 11 12 15 21 22 23 24 27 27 27 25 28 37 42 42 41 38 38 38 28
14 17 19 17 23 32 33 34 35 35 32 33 21 20 29 34 34 25 19 16 14 15 15 15 16 16 16 16 15 16 16 15 16 16 16 17 19 19 20 19 18 16 13 8 13 9 8 7 6 7 7 7 12 12 13 12 15 17 21 21 23 24 26 25 24 24 24 25 27 33 36 41 37 36
18 18 17 18 30 34 35 34 32 31 32 27 19 29 31 32 34 28 16 15 14 14 15 15 15 15 15 15 16 14 14 14 15 15 15 16 17 17 17 18 17 16 12 9 8 8 9 10 3 6 9 7 8 13 13 12 13 15 17 19 22 23 22 22 24 22 21 21 22 36 37 40 38 36
18 17 18 21 34 33 31 30 29 29 28 21 28 29 30 31 27 13 11 11 13 14 15 16 16 15 15 15 14 14 13 13 14 14 14 13 15 14 12 13 15 14 12 12 11 11 10 11 10 8 8 9 7 10 12 12 11 15 17 16 17 21 21 23 21 21 22 22 21 24 22 23 26 27
15 22 31 32 29 28 28 29 27 23 23 26 27 29 28 25 11 11 10 10 11 13 14 14 15 15 16 16 16 14 14 14 14 13 11 11 11 10 11 11 12 13 12 12 13 13 11 11 12 8 8 8 9 12 10 14 12 17 18 18 16 18 21 22 22 22 21 21 20 22 23 23 23 23
26 27 26 27 26 24 22 18 16 15 16 24 26 25 23 13 11 10 10 10 10 11 12 13 15 15 14 15 15 14 14 13 13 12 12 10 11 10 10 10 12 13 13 12 14 13 12 12 11 9 9 10 9 11 11 11 12 17 18 19 17 12 17 21 22 23 23 22 22 22 22 23 24 24
13 16 17 16 22 20 24 23 22 21 20 17 15 13 12 12 11 11 10 11 12 12 13 14 14 14 15 14 13 13 13 14 13 12 12 12 12 10 10 11 13 13 12 13 14 13 12 12 12 11 12 12 9 10 12 12 14 16 19 19 21 21 17 19 21 23 23 23 22 22 21 20 20 22
13 13 15 17 12 13 12 12 11 11 12 13 13 12 12 12 12 15 18 17 12 12 12 12 13 14 14 14 14 13 12 13 13 13 14 13 13 11 11 12 13 12 11 11 11 13 14 14 13 12 14 12 12 12 10 13 16 17 20 19 19 16 19 21 22 22 25 23 21 21 21 20 20 19
10 9 10 10 12 12 13 13 12 12 12 11 11 13 12 11 11 11 10 11 11 12 12 13 13 13 12 13 13 13 13 13 12 10 12 12 13 12 12 14 13 11 11 11 10 9 10 12 14 15 14 13 13 12 10 13 14 17 19 21 20 19 18 18 20 23 24 24 21 19 19 18 18 19
10 11 11 11 12 13 14 14 14 14 13 13 13 12 15 13 12 13 12 12 12 12 13 13 13 13 13 13 13 12 13 12 11 12 12 12 11 12 13 12 12 12 12 11 10 8 7 8 10 12 14 14 12 12 11 13 13 16 19 19 19 20 20 20 19 21 22 22 22 20 19 18 17 16
9 10 11 12 12 12 13 13 14 14 15 15 14 14 13 11 13 14 13 13 13 13 13 13 12 12 12 13 13 13 13 12 11 10 10 11 12 13 12 12 12 12 12 11 11 8 8 8 9 10 10 9 9 11 14 15 13 13 19 21 19 20 19 18 19 20 21 19 20 22 20 18 17 15
9 10 11 11 12 12 13 14 14 14 14 14 14 15 15 14 13 13 14 15 14 13 13 12 13 12 12 11 12 13 13 14 13 12 12 11 12 12 12 13 13 13 12 11 10 9 9 10 9 10 9 7 6 8 11 15 15 10 17 18 19 20 19 17 17 18 19 18 18 19 19 19 16 15
10 10 10 11 12 12 12 13 14 14 14 14 14 14 15 15 16 15 16 18 14 12 12 13 13 13 13 13 13 14 14 13 13 12 12 12 12 12 12 12 12 12 12 12 11 10 10 11 10 11 9 7 7 8 9 4 10 11 11 18 15 16 20 19 17 16 15 18 17 17 18 19 19 17
9 10 10 11 11 12 12 13 14 14 14 13 14 15 14 13 14 17 18 15 12 10 11 12 13 14 13 13 13 13 13 13 13 13 13 12 11 12 12 12 12 12 12 11 11 12 11 11 11 11 10 9 9 9 8 5 8 8 10 10 18 16 16 19 19 19 16 14 16 16 14 16 16 15
9 10 10 11 12 11 12 13 13 14 14 13 14 14 15 14 13 13 13 11 11 12 13 14 13 13 14 14 13 13 13 12 12 12 12 12 12 12 12 13 13 11 10 11 11 12 12 12 12 12 12 12 13 11 9 9 14 12 11 12 12 18 17 19 20 19 19 17 15 10 5 6 11 15
10 10 10 10 11 11 12 12 12 13 14 14 14 13 14 16 16 14 12 12 13 14 14 13 13 13 12 13 13 13 14 15 14 13 13 12 13 12 12 12 12 11 10 12 12 13 13 14 14 14 14 13 11 7 6 3 5 12 14 16 20 19 20 19 19 19 17 17 15 15 14 14 12 8
10 11 11 11 11 11 12 13 13 14 14 14 13 15 15 14 13 12 13 15 15 14 13 13 13 14 13 13 13 12 14 13 13 13 13 13 14 15 14 13 12 11 12 13 15 15 16 16 16 19 14 5 5 7 7 5 8 9 12 12 20 24 24 26 24 22 20 19 17 18 17 17 18 18
10 10 11 11 12 12 12 13 13 14 14 14 14 14 15 15 12 22 19 16 14 14 13 14 14 12 11 11 12 13 13 14 13 13 13 12 12 14 16 15 13 13 14 15 16 16 14 10 9 8 6 9 11 13 12 11 12 15 14 12 11 15 17 15 18 22 23 23 21 18 16 15 14 16
11 10 11 12 12 12 12 12 13 14 14 14 14 14 14 14 13 17 14 14 14 14 13 14 13 13 12 12 13 12 12 13 13 14 14 14 13 14 14 13 14 15 15 15 14 10 4 7 8 10 11 13 12 13 14 15 14 14 13 13 13 10 8 13 16 15 14 21 24 25 24 22 21 20
10 11 12 12 13 14 13 13 13 14 14 14 14 14 13 12 15 18 14 14 15 15 15 14 14 14 14 11 12 12 12 13 13 14 14 14 14 15 15 14 14 14 13 12 9 5 8 10 12 13 14 14 13 14 16 14 13 12 14 15 13 14 13 8 9 10 14 16 13 8 9 8 13 9
10 11 11 12 12 13 12 12 13 14 14 14 14 13 14 14 16 16 15 16 15 16 16 15 15 15 15 14 12 14 13 15 15 14 14 14 15 15 15 13 12 11 11 11 8 9 10 11 12 12 12 13 13 15 14 15 14 13 13 14 16 15 13 13 15 15 12 8 6 14 16 12 19 27
Wind_Direction
269 265 265 266 266 266 267 266 263 261 262 261 259 255 255 258 264 273 273 272 282 286 281 285 276 280 286 281 274 269 269 276 280 280 284 286 283 268 257 256 258 260 256 253 251 250 251 252 251 247 246 250 252 253 255 238 221 216 215 200 196 193 190 192 189 188 193 194 184 186 189 188 187 185
268 270 271 267 268 266 264 263 263 262 260 260 258 257 256 255 257 260 265 272 271 285 282 274 281 282 284 282 280 284 289 293 296 293 290 285 277 283 284 274 268 270 273 275 274 268 260 253 250 247 242 244 246 247 250 246 222 215 217 207 196 194 192 193 190 185 183 187 195 190 187 188 189 184
269 267 267 267 266 266 265 266 266 265 263 261 260 256 258 256 254 259 263 271 264 266 279 275 275 284 280 281 285 284 284 291 293 293 291 287 288 287 289 288 286 279 272 269 266 267 267 265 254 248 243 241 243 243 243 244 232 220 216 212 201 196 194 193 190 183 181 184 186 192 189 187 189 186
266 267 268 266 265 267 267 267 267 266 264 263 262 261 259 258 258 258 263 264 270 260 268 273 276 275 279 287 285 281 280 284 285 282 280 279 281 278 273 269 263 263 264 262 259 258 260 262 259 250 246 245 242 239 239 239 237 226 219 219 210 200 196 193 190 183 179 182 184 185 187 189 187 186
270 270 270 270 270 271 272 273 273 271 269 265 262 263 262 260 261 263 264 266 269 265 261 271 275 282 288 287 289 290 291 289 287 287 286 290 287 283 278 271 267 260 254 253 250 249 251 257 259 254 250 247 246 243 237 236 235 230 217 215 210 198 193 192 190 189 185 180 180 179 182 188 188 183
271 272 272 273 276 278 277 277 276 274 273 271 271 270 269 269 266 266 268 267 273 277 274 275 279 280 277 278 277 283 286 286 285 283 285 285 283 279 277 274 266 259 251 247 247 248 248 251 256 257 253 251 247 243 239 234 232 230 222 214 212 199 191 188 188 184 183 184 179 178 178 183 188 185
277 276 276 278 279 279 279 277 276 278 279 281 278 275 270 268 267 267 266 271 271 271 271 275 282 280 282 277 284 283 279 278 276 279 280 281 281 278 272 274 278 280 281 275 262 256 252 250 253 255 256 255 251 243 237 234 230 227 223 217 210 200 191 187 184 182 181 182 183 179 178 181 185 184
276 276 277 277 277 277 277 277 276 275 276 276 274 272 269 269 269 267 269 266 268 273 279 274 275 287 285 277 274 279 280 277 275 274 274 273 270 266 264 267 273 276 271 262 259 261 260 257 255 255 253 253 255 249 236 231 228 225 221 216 211 199 189 188 183 182 180 180 180 180 176 180 182 182
277 275 273 276 277 276 275 276 273 274 273 273 273 271 271 269 270 270 267 266 263 267 269 279 276 282 276 279 280 275 278 279 273 271 267 267 265 263 262 261 262 264 265 265 257 252 254 255 255 253 252 250 251 253 245 229 226 222 218 213 207 202 198 184 181 178 176 176 176 179 179 179 180 180
273 278 272 271 269 270 268 268 269 268 271 270 268 268 269 267 267 270 270 268 268 267 270 272 278 276 276 280 276 274 271 270 275 273 265 261 262 265 264 257 254 250 254 256 252 249 248 249 250 251 249 249 248 249 249 235 223 218 214 207 200 192 194 195 177 172 173 174 174 176 179 179 180 179
277 271 271 269 267 266 264 264 265 268 268 266 264 264 263 262 264 263 263 267 269 269 270 270 271 275 274 274 279 279 275 277 278 280 282 278 273 266 262 261 256 259 259 255 255 255 255 251 248 245 246 246 246 248 250 241 224 214 207 198 192 185 179 180 180 169 169 172 174 174 175 179 179 179
273 270 266 266 265 264 262 260 257 256 259 266 264 265 260 258 260 262 263 263 263 266 267 268 271 270 277 279 275 277 274 266 260 252 257 266 269 259 248 240 253 260 255 258 267 270 266 259 252 250 246 243 242 243 247 245 227 209 200 192 185 180 176 173 175 173 167 170 174 176 175 176 177 178
275 270 268 267 267 261 264 264 264 259 255 258 263 260 259 256 254 256 260 262 264 264 265 267 267 272 274 278 282 282 273 262 266 278 284 278 270 260 244 242 228 233 254 264 269 276 278 272 256 242 241 241 240 241 238 242 226 207 197 190 180 175 173 173 172 175 170 166 172 176 175 176 176 178
274 275 276 273 271 277 277 278 276 274 271 264 260 260 257 255 252 248 248 250 254 257 259 261 259 266 268 272 278 281 283 286 286 288 291 290 291 279 263 253 236 233 244 295 307 308 304 294 281 259 242 239 232 234 231 230 223 205 190 187 180 174 172 172 173 171 174 171 169 172 174 176 177 178
286 284 281 284 281 282 281 278 279 277 275 273 270 268 264 258 256 254 248 244 242 245 247 252 255 251 264 265 271 275 281 284 284 282 283 284 292 287 279 281 277 297 35 341 314 301 292 291 290 280 256 240 236 229 231 225 218 202 189 184 178 175 172 173 172 172 172 175 172 170 173 175 176 178
288 286 287 285 284 283 284 281 281 279 278 276 274 271 269 265 261 261 260 255 246 242 248 245 245 249 248 262 268 273 275 280 287 288 285 282 283 287 291 286 282 288 29 326 302 289 291 295 281 279 269 255 241 234 227 224 212 201 190 181 179 175 173 173 174 173 173 174 176 172 171 173 175 177
284 283 282 281 279 279 281 282 280 281 281 277 276 274 274 272 266 262 261 262 261 259 258 261 259 255 265 264 267 270 272 278 282 290 292 292 291 290 294 294 292 296 345 304 294 288 285 287 282 280 272 266 255 240 223 217 210 196 197 186 177 176 175 174 174 174 174 174 175 175 172 172 173 176
289 290 291 292 291 292 290 285 281 283 280 282 282 280 278 277 272 267 264 261 264 264 262 263 265 263 260 265 268 268 272 273 272 278 281 285 286 286 283 291 292 292 304 280 282 281 283 259 279 282 287 284 273 246 220 208 204 194 188 191 181 176 174 174 174 175 174 173 174 174 173 173 173 173
269 268 272 274 277 279 276 274 280 283 280 278 275 271 267 266 268 268 265 259 254 253 252 255 258 261 260 261 262 267 268 268 268 267 272 278 280 282 283 281 276 282 268 246 238 270 288 329 297 284 286 291 276 248 217 199 198 193 189 187 182 178 175 174 174 174 174 174 174 174 173 172 174 174
280 284 287 291 289 283 287 289 285 284 285 278 276 275 273 270 269 270 271 269 260 256 252 249 248 252 252 253 253 254 259 263 265 266 265 262 260 266 272 272 276 270 239 204 220 262 283 270 281 285 284 281 276 250 220 195 193 191 188 185 183 178 176 174 174 174 174 174 174 173 174 173 173 173
285 283 279 282 289 294 296 294 293 291 288 284 277 273 272 271 271 268 266 268 268 266 260 257 255 254 252 254 253 254 255 258 261 264 267 264 267 268 268 268 266 264 246 221 214 262 280 275 275 283 280 280 274 259 216 190 190 188 187 185 182 177 175 175 174 174 174 173 174 174 174 173 173 172
284 276 275 281 287 294 298 297 296 296 298 291 281 272 269 268 264 261 261 263 263 264 264 262 262 262 263 264 261 257 260 262 260 252 254 258 262 262 260 264 264 271 257 244 217 263 260 284 265 283 290 286 272 251 218 186 189 187 186 183 183 178 175 175 174 174 173 173 173 173 173 172 170 168
279 277 281 290 301 302 298 300 299 299 301 296 294 289 284 279 274 272 264 255 255 254 256 257 260 261 264 264 260 260 260 261 258 253 253 257 253 256 260 259 264 266 255 251 196 230 258 320 269 324 306 299 290 241 209 187 185 185 182 183 181 180 175 174 174 173 173 172 172 172 171 169 166 166
303 304 302 304 306 306 306 303 301 299 296 293 288 282 278 275 275 278 276 274 278 280 277 276 271 267 264 259 257 253 252 252 250 251 248 248 248 252 255 253 250 253 254 220 137 263 266 256 283 172 239 293 301 304 225 191 179 182 186 181 180 179 176 174 174 174 173 173 171 170 168 166 165 165
307 309 310 311 309 308 306 304 302 301 301 300 295 287 275 270 270 271 266 267 267 265 264 262 265 267 265 260 257 254 253 250 248 247 246 245 242 241 243 243 244 248 245 235 257 274 266 249 275 309 283 265 278 290 264 200 187 179 183 181 178 175 176 176 173 175 174 172 171 168 166 166 167 166
311 312 312 307 307 308 307 309 311 310 307 303 298 291 291 288 283 274 262 262 265 267 269 267 267 266 264 265 256 252 251 247 245 243 244 245 243 239 237 237 240 247 243 221 221 226 251 252 249 280 278 292 288 285 268 213 188 185 177 179 177 178 174 172 172 175 175 171 170 168 167 168 169 168
313 311 305 303 306 311 314 314 313 314 315 314 304 297 295 295 287 279 264 254 255 256 259 259 260 261 261 260 260 252 251 248 244 244 241 245 243 237 234 232 234 243 248 243 224 233 241 257 207 221 267 263 272 290 273 230 185 179 181 178 175 172 173 170 169 169 169 169 169 168 167 169 169 168
309 307 305 310 314 316 316 317 318 318 318 313 311 310 309 314 313 288 273 256 249 250 253 259 258 258 257 259 256 252 249 250 249 247 245 244 245 238 232 234 242 245 245 245 244 243 240 254 254 234 231 252 255 269 285 254 183 175 176 175 175 169 170 167 167 165 166 166 166 168 168 172 169 167
307 309 313 314 316 318 317 317 317 315 312 313 316 317 317 318 317 316 291 272 262 260 261 261 264 262 262 260 260 252 247 249 253 252 249 247 247 243 242 238 237 238 234 236 239 238 237 240 251 245 231 233 236 257 264 269 202 175 171 167 172 173 168 168 166 166 166 164 164 166 171 169 169 169
316 317 315 314 314 315 316 318 317 315 314 317 317 317 317 314 313 311 309 304 300 290 284 271 260 260 259 257 255 251 245 243 245 248 250 247 243 237 240 244 245 239 234 230 233 233 231 236 239 239 246 244 236 257 264 266 233 177 168 173 162 157 170 166 166 164 163 165 165 170 173 171 169 169
327 320 318 317 317 315 315 314 313 313 314 314 314 315 315 313 309 305 299 299 297 294 290 289 287 274 263 260 256 249 246 242 241 239 243 243 241 237 235 240 247 245 234 228 233 230 231 234 235 232 242 251 246 239 257 262 249 187 174 166 161 171 170 165 164 164 164 163 166 169 169 170 170 172
330 321 320 318 319 317 317 317 314 314 314 313 314 315 316 311 308 305 302 299 290 287 289 290 295 299 290 263 252 251 245 247 244 242 241 237 241 237 239 242 244 245 244 235 233 226 222 225 229 229 232 236 245 254 253 262 242 197 169 167 165 156 159 167 164 166 163 160 163 169 167 167 170 172
327 320 326 330 331 332 329 329 325 320 317 318 316 313 317 317 316 314 312 307 301 299 300 300 300 298 298 296 276 253 249 247 246 238 242 240 242 241 235 240 246 246 247 244 237 228 211 219 220 228 229 229 228 240 256 271 241 190 170 165 162 159 159 161 163 163 158 159 162 159 163 169 171 171
332 335 336 334 335 336 334 329 327 323 321 321 322 320 322 322 320 319 315 309 304 304 301 298 297 297 300 298 298 283 257 247 247 243 242 245 237 241 237 241 243 245 247 246 245 236 229 218 222 227 228 230 227 228 237 253 252 188 168 164 159 157 160 157 159 158 160 160 157 159 162 168 170 171
338 336 336 336 334 332 330 329 325 323 323 320 321 324 320 315 321 323 320 315 312 309 303 299 294 295 297 301 302 301 297 275 253 248 238 240 241 238 238 241 245 244 242 242 243 241 238 237 220 222 219 220 235 249 230 235 256 206 170 163 159 156 157 157 155 158 158 159 161 161 163 164 169 170
337 338 337 332 331 328 328 324 322 321 320 319 318 321 325 323 315 316 320 320 316 310 307 304 303 299 299 297 300 299 295 295 284 261 247 238 239 237 236 235 239 242 239 242 241 239 232 235 220 211 211 206 222 259 273 235 222 199 174 159 160 155 151 151 154 156 157 158 161 160 165 167 169 170
335 336 333 328 324 325 320 321 322 318 316 316 317 315 313 317 323 321 316 315 309 310 313 314 312 310 303 301 298 295 294 294 289 280 257 242 237 236 235 236 235 238 239 239 239 239 232 229 219 210 204 205 207 235 245 253 204 195 179 159 155 156 151 149 150 158 162 159 162 167 168 168 173 175
337 332 328 326 322 320 318 316 316 314 314 318 317 311 304 298 300 312 316 313 309 312 317 314 311 307 303 301 298 294 294 291 292 288 282 261 243 236 235 239 240 235 236 238 235 234 230 227 216 208 198 202 205 213 221 224 170 201 216 175 151 153 152 148 153 158 159 163 166 168 165 176 173 169
335 328 324 321 321 318 314 313 312 314 313 308 312 315 309 299 294 291 299 302 311 320 321 319 312 309 307 302 294 291 288 290 287 284 282 281 259 242 238 238 241 239 235 237 234 233 226 223 213 203 200 203 208 201 196 185 179 174 181 187 157 150 158 157 156 159 160 161 161 145 100 86 96 117
330 325 319 317 315 313 310 310 311 308 309 308 300 300 310 308 301 306 311 312 318 319 315 309 309 311 305 299 294 288 282 278 276 273 276 274 273 255 239 235 235 235 234 236 236 229 221 216 208 203 200 207 207 197 169 220 180 166 166 171 173 169 161 162 162 159 160 161 147 134 132 134 140 132
328 327 324 319 312 311 311 309 309 309 305 304 301 303 302 297 298 306 312 320 319 317 314 314 313 309 304 300 293 288 285 280 276 274 273 273 270 262 243 234 233 229 230 233 231 226 219 212 207 199 194 164 123 98 118 126 147 159 162 170 174 177 176 170 164 164 164 157 156 157 152 155 151 154
327 324 320 322 320 312 308 305 306 310 308 304 307 309 304 302 300 319 321 316 318 318 314 311 306 298 289 292 296 292 282 279 278 275 273 274 275 265 244 233 230 227 226 230 225 223 219 206 194 171 135 142 161 175 175 156 161 166 168 163 166 167 170 184 180 170 162 160 160 164 157 151 152 161
326 324 322 318 315 308 308 307 308 307 307 306 300 297 301 299 303 322 324 324 326 324 320 316 311 305 305 302 297 287 284 281 275 273 275 274 274 270 253 228 224 225 227 231 231 221 167 139 140 158 171 179 183 180 178 174 170 159 151 151 153 147 144 152 155 160 172 179 174 168 168 165 163 171
328 322 319 319 319 316 309 305 305 308 306 304 301 301 301 300 316 322 323 329 330 329 326 321 317 314 310 299 297 289 281 277 274 275 275 275 272 271 258 231 221 221 227 231 222 169 151 158 168 176 180 186 182 184 181 168 162 160 157 154 147 145 143 127 113 130 156 170 176 167 153 106 43 70
323 321 318 316 312 310 307 307 307 305 306 306 306 306 308 316 329 327 327 330 331 331 330 326 321 317 313 308 300 297 291 286 283 277 274 272 272 268 257 230 219 219 224 220 187 166 166 169 178 179 184 186 181 181 172 168 163 158 153 147 151 150 144 145 145 150 149 144 134 142 152 136 110 109